Weather History for Kingston, Jamaica

Change the Weather History Date:

Thursday, May 30, 2013

  Actual Average Record
Temperature  
Mean Temperature 81 °F -  
Max Temperature 88 °F 87 °F 91 °F (2005)
Min Temperature 74 °F 78 °F 73 °F (2002)
Cooling Degree Days 16    
Growing Degree Days 31 (Base 50)    
Moisture  
Dew Point 75 °F    
Average Humidity 76    
Maximum Humidity 89    
Minimum Humidity 64    
Precipitation  
Precipitation 0.12 in - - ()
Sea Level Pressure  
Sea Level Pressure 29.94 in    
Wind  
Wind Speed 14 mph ()    
Max Wind Speed 25 mph    
Max Gust Speed -    
Visibility 6.8 miles    
Events Rain , Thunderstorm    
Averages and records for this station are not official NWS values.
T = Trace of Precipitation, MM = Missing Value Source: Averaged Metar Reports

Daily Weather History Graph

Daily Weather History Graph

Search for Another Location

Airport:

Trip Planner

Search our weather history database for the weather conditions in past years. The results will help you decide how hot, cold, wet, or windy it might be!

Date:

Astronomy

May. 30, 2013 Rise Set
Actual Time 5:31 AM EST 6:38 PM EST
Civil Twilight 5:07 AM EST 7:02 PM EST
Nautical Twilight 4:39 AM EST 7:30 PM EST
Astronomical Twilight 4:10 AM EST 7:59 PM EST
Moon 11:50 PM EST (5/30) 11:05 AM EST (5/30)
Length of Visible Light 13h 55m
Length of Day
13h 07m
Waning Gibbous, 62% of the Moon is Illuminated
May 30
Waning Gibbous
May 31
Last Quarter
Jun 8
New
Jun 16
First Quarter
Jun 23
Full

Hourly Weather History & Observations

Time (EST) Temp. Heat Index Dew Point Humidity Pressure Visibility Wind Dir Wind Speed Gust Speed Precip Events Conditions
12:00 AM 82.4 °F 89.5 °F 75.2 °F 79% 29.95 in 6.2 mi ESE 11.5 mph - N/A   Mostly Cloudy
1:00 AM 83 °F - 76 °F 73% 29.94 in 7 mi ESE 13.8 mph - -   Mostly Cloudy
1:00 AM 82.4 °F 89.5 °F 75.2 °F 79% 29.92 in 6.2 mi ESE 13.8 mph - N/A   Mostly Cloudy
2:00 AM 82.4 °F 89.5 °F 75.2 °F 79% 29.92 in 6.2 mi ESE 13.8 mph - N/A   Mostly Cloudy
3:00 AM 82.4 °F 89.5 °F 75.2 °F 79% 29.92 in 6.2 mi SE 13.8 mph - N/A   Mostly Cloudy
4:00 AM 82 °F - 75 °F 73% 29.93 in 12 mi ESE 15.0 mph - -   Partly Cloudy
4:00 AM 82.4 °F 89.5 °F 75.2 °F 79% 29.92 in 6.2 mi ESE 15.0 mph - N/A Thunderstorm Mostly Cloudy
5:00 AM 80.6 °F 85.4 °F 73.4 °F 79% 29.92 in 6.2 mi East 18.4 mph - N/A Thunderstorm Mostly Cloudy
6:00 AM 80.6 °F 86.2 °F 75.2 °F 84% 29.92 in 6.2 mi ESE 13.8 mph - N/A Rain Light Rain Showers
7:00 AM 82 °F - 74 °F 72% 29.96 in 7 mi ESE 12.7 mph - - Rain Light Rain Showers
7:00 AM 80.6 °F 86.2 °F 75.2 °F 84% 29.95 in 5.6 mi ESE 17.3 mph - N/A Rain Light Rain Showers
8:00 AM 80.6 °F 86.2 °F 75.2 °F 84% 29.95 in 5.6 mi ESE 17.3 mph - N/A Rain Light Rain Showers
9:00 AM 80.6 °F 86.2 °F 75.2 °F 84% 29.95 in 6.2 mi East 16.1 mph - N/A Rain Light Rain Showers
9:24 AM 78.8 °F - 75.2 °F 89% 29.98 in 1.9 mi ESE 15.0 mph - N/A Rain Rain
10:00 AM 80 °F - 75 °F 79% 29.98 in 5 mi East 10.4 mph - - Rain Light Rain
10:00 AM 80.6 °F 86.2 °F 75.2 °F 84% 29.98 in 5.0 mi East 10.4 mph - N/A Rain Light Rain
11:00 AM 84.2 °F 92.3 °F 75.2 °F 74% 29.98 in 6.2 mi East 9.2 mph - N/A   Mostly Cloudy
12:00 PM 86.0 °F 95.1 °F 75.2 °F 70% 29.95 in 6.2 mi ESE 18.4 mph - N/A   Mostly Cloudy
1:00 PM 87 °F - 78 °F 68% 29.95 in 12 mi ESE 21.9 mph - -   Haze
1:00 PM 86.0 °F 96.9 °F 77.0 °F 74% 29.95 in 6.2 mi ESE 21.9 mph - N/A   Mostly Cloudy
2:00 PM 87.8 °F 99.7 °F 77.0 °F 70% 29.92 in 6.2 mi ESE 23.0 mph - N/A   Mostly Cloudy
3:00 PM 86.0 °F 95.1 °F 75.2 °F 70% 29.89 in 6.2 mi SE 25.3 mph - N/A   Mostly Cloudy
4:00 PM 85 °F - 75 °F 64% 29.90 in 9 mi SE 23.0 mph - -   Haze
4:00 PM 86.0 °F 95.1 °F 75.2 °F 70% 29.89 in 6.2 mi SE 23.0 mph - N/A   Mostly Cloudy
4:04 PM 86.0 °F 95.1 °F 75.2 °F 70% 29.89 in 6.2 mi SE 23.0 mph - N/A   Mostly Cloudy
5:00 PM 86.0 °F 95.1 °F 75.2 °F 70% 29.89 in 6.2 mi SE 21.9 mph - N/A   Mostly Cloudy
6:00 PM 84.2 °F 90.9 °F 73.4 °F 70% 29.89 in 6.2 mi ESE 20.7 mph - N/A   Mostly Cloudy
7:00 PM 84 °F - 75 °F 67% 29.94 in 12 mi ESE 17.3 mph - -   Haze
7:00 PM 84.2 °F 92.3 °F 75.2 °F 74% 29.92 in 6.2 mi ESE 17.3 mph - N/A   Mostly Cloudy
8:00 PM 82.4 °F 89.5 °F 75.2 °F 79% 29.95 in 6.2 mi ESE 12.7 mph - N/A   Mostly Cloudy
9:00 PM 82.4 °F 88.2 °F 73.4 °F 74% 29.95 in 6.2 mi ESE 13.8 mph - N/A   Scattered Clouds
10:00 PM 82 °F - 75 °F 74% 29.98 in 12 mi ESE 13.8 mph - -   Haze
10:00 PM 82.4 °F 89.5 °F 75.2 °F 79% 29.98 in 6.2 mi ESE 13.8 mph - N/A   Scattered Clouds
11:00 PM 82.4 °F 89.5 °F 75.2 °F 79% 29.98 in 6.2 mi ESE 12.7 mph - N/A   Scattered Clouds